Location: Blairvadach
(56.2780°N, 6.9720°W)
Time: 08:13:26
(UTC+01:00)

Envisat - Pass Details

Date: 19 February 2019
Orbit: 764 x 766 km, 98.1° (Epoch: 23 October)

Event Time Altitude Azimuth Distance (km) Brightness Sun altitude
Rises 19:29:53 0° 183° (S) 3,223 6.2 -15.9°
Reaches altitude 10° 19:32:17 10° 190° (S) 2,301 5.5 -16.3°
Maximum altitude 19:37:07 44° 262° (W) 1,049 4.2 -16.9°
Drops below altitude 10° 19:42:01 10° 335° (NNW) 2,316 5.9 -17.6°
Sets 19:44:26 0° 342° (NNW) 3,247 6.6 -18.0°
